GW2094 Weather Reports


time (UTC)temp
F
wind
direction
speed
knots
gust
knots
rain 1hr
in
rain 24hr
in
rain mn
in
humidity
%
barometer
mb
20260506153025 74 0.0 0.0 0.00 0.00 0.00 21 1013.5
20260506151917 74 0.0 0.0 0.00 0.00 0.00 23 1013.5
20260506150811 74 0.0 0.0 0.00 0.00 0.00 21 1013.7
20260506145704 74 0.0 0.0 0.00 0.00 0.00 21 1013.7
20260506144557 74 0.0 0.0 0.00 0.00 0.00 21 1013.6
20260506143449 74 0.0 0.0 0.00 0.00 0.00 20 1013.6
20260506142343 74 0.0 0.0 0.00 0.00 0.00 22 1013.6
20260506141236 74 0.0 0.0 0.00 0.00 0.00 19 1013.6
20260506140129 75 0.0 0.0 0.00 0.00 0.00 19 1013.6
20260506135022 75 0.0 0.0 0.00 0.00 0.00 22 1013.8
20260506133915 74 0.0 0.0 0.00 0.00 0.00 19 1013.8
20260506131704 75 0.0 0.0 0.00 0.00 0.00 17 1013.9
20260506130557 75 0.0 0.0 0.00 0.00 0.00 18 1013.9
20260506125451 75 0.0 0.0 0.00 0.00 0.00 17 1014.0
20260506123240 76 0.0 0.0 0.00 0.00 0.00 15 1014.1
20260506122133 76 0.0 0.0 0.00 0.00 0.00 16 1014.1
20260506121026 77 0.0 0.0 0.00 0.00 0.00 17 1014.2
20260506115919 78 0.0 0.0 0.00 0.00 0.00 17 1014.3
20260506114812 79 0.0 0.0 0.00 0.00 0.00 10 1014.4
20260506113705 83 0.0 0.0 0.00 0.00 0.00 9 1014.4
20260506112559 83 0.0 0.0 0.00 0.00 0.00 10 1014.5
20260506111451 81 0.0 0.0 0.00 0.00 0.00 13 1014.5
20260506110345 81 0.0 0.0 0.00 0.00 0.00 14 1014.5
20260506105238 79 0.0 0.0 0.00 0.00 0.00 18 1014.6
20260506104131 80 0.0 0.0 0.00 0.00 0.00 18 1014.6
20260506103025 82 0.0 0.0 0.00 0.00 0.00 25 1014.8
20260506101918 79 0.0 0.0 0.00 0.00 0.00 5 1014.7
20260506095707 73 0.0 0.0 0.00 0.00 0.00 5 1014.9
20260506094600 73 0.0 0.0 0.00 0.00 0.00 5 1015.0
20260506093453 73 0.0 0.0 0.00 0.00 0.00 5 1015.1
20260506092346 72 0.0 0.0 0.00 0.00 0.00 5 1015.1
20260506091239 72 0.0 0.0 0.00 0.00 0.00 5 1015.2
20260506090131 70 0.0 0.0 0.00 0.00 0.00 5 1015.2
20260506085024 70 0.0 0.0 0.00 0.00 0.00 5 1015.2
20260506082813 69 0.0 0.0 0.00 0.00 0.00 5 1015.1
20260506081706 68 0.0 0.0 0.00 0.00 0.00 5 1015.2
20260506080559 67 0.0 0.0 0.00 0.00 0.00 5 1015.1
20260506073242 65 0.0 0.0 0.00 0.00 0.00 5 1015.1
20260506072135 65 0.0 0.0 0.00 0.00 0.00 5 1015.1
20260506071029 64 0.0 0.0 0.00 0.00 0.00 5 1015.1
20260506061454 60 0.0 0.0 0.00 0.00 0.00 5 1015.2
20260506060346 59 0.0 0.0 0.00 0.00 0.00 5 1015.1
20260506050815 55 0.0 0.0 0.00 0.00 0.00 5 1015.2
20260506044605 54 0.0 0.0 0.00 0.00 0.00 5 1015.0
20260506043457 53 0.0 0.0 0.00 0.00 0.00 5 1014.9
20260506042351 52 0.0 0.0 0.00 0.00 0.00 1014.7
20260506040140 52 0.0 0.0 0.00 0.00 0.00 5 1014.7
20260506033930 51 0.0 0.0 0.00 0.00 0.00 5 1014.7
20260506031719 52 0.0 0.0 0.00 0.00 0.00 1014.6
20260506030612 52 0.0 0.0 0.00 0.00 0.00 1014.6
20260506025506 52 0.0 0.0 0.00 0.00 0.00 1014.5
20260506023252 52 0.0 0.0 0.00 0.00 0.00 1014.4
20260506021041 53 0.0 0.0 0.00 0.00 0.00 5 1014.4
20260506015935 53 0.0 0.0 0.00 0.00 0.00 5 1014.3
20260506014828 53 0.0 0.0 0.00 0.00 0.00 1014.4
20260506013722 53 0.0 0.0 0.00 0.00 0.00 5 1014.4
20260506012614 53 0.0 0.0 0.00 0.00 0.00 5 1014.3
20260506011508 53 0.0 0.0 0.00 0.00 0.00 5 1014.4
20260506010401 54 0.0 0.0 0.00 0.00 0.00 5 1014.3
20260506005253 54 0.0 0.0 0.00 0.00 0.00 5 1014.3
20260506004146 54 0.0 0.0 0.00 0.00 0.00 5 1014.3
20260506003039 54 0.0 0.0 0.00 0.00 0.00 5 1014.3
20260505235725 55 0.0 0.0 0.00 0.00 0.00 5 1014.2
20260505233515 56 0.0 0.0 0.00 0.00 0.00 5 1014.1
20260505231304 56 0.0 0.0 0.00 0.00 0.00 5 1014.2
20260505230157 57 0.0 0.0 0.00 0.00 0.00 5 1014.4
20260505225050 57 0.0 0.0 0.00 0.00 0.00 5 1014.4
20260505223943 57 0.0 0.0 0.00 0.00 0.00 5 1014.4
20260505222836 57 0.0 0.0 0.00 0.00 0.00 5 1014.3
20260505220625 58 0.0 0.0 0.00 0.00 0.00 5 1014.2
20260505215518 58 0.0 0.0 0.00 0.00 0.00 5 1014.1
20260505214412 58 0.0 0.0 0.00 0.00 0.00 5 1014.1
20260505213304 58 0.0 0.0 0.00 0.00 0.00 5 1014.0
20260505212158 58 0.0 0.0 0.00 0.00 0.00 5 1014.1
20260505211050 59 0.0 0.0 0.00 0.00 0.00 5 1014.0
20260505205943 59 0.0 0.0 0.00 0.00 0.00 5 1014.1
20260505204837 60 0.0 0.0 0.00 0.00 0.00 5 1014.1
20260505203729 60 0.0 0.0 0.00 0.00 0.00 5 1014.0
20260505202623 61 0.0 0.0 0.00 0.00 0.00 5 1014.1
20260505201516 61 0.0 0.0 0.00 0.00 0.00 5 1014.0
20260505194201 62 0.0 0.0 0.00 0.00 0.00 5 1013.9
20260505193054 62 0.0 0.0 0.00 0.00 0.00 5 1013.8
20260505191947 63 0.0 0.0 0.00 0.00 0.00 5 1013.7
20260505190840 63 0.0 0.0 0.00 0.00 0.00 5 1013.7
20260505185733 64 0.0 0.0 0.00 0.00 0.00 5 1013.7
20260505184627 64 0.0 0.0 0.00 0.00 0.00 5 1013.7
20260505183520 64 0.0 0.0 0.00 0.00 0.00 5 1013.7
20260505182414 65 0.0 0.0 0.00 0.00 0.00 5 1013.6
20260505181306 65 0.0 0.0 0.00 0.00 0.00 5 1013.6
20260505180159 66 0.0 0.0 0.00 0.00 0.00 5 1013.6
20260505175052 66 0.0 0.0 0.00 0.00 0.00 5 1013.4
20260505173945 67 0.0 0.0 0.00 0.00 0.00 5 1013.4
20260505172838 67 0.0 0.0 0.00 0.00 0.00 5 1013.3
20260505171731 68 0.0 0.0 0.00 0.00 0.00 5 1013.2
20260505170624 69 0.0 0.0 0.00 0.00 0.00 5 1013.2
20260505165517 71 0.0 0.0 0.00 0.00 0.00 27 1013.2
20260505164409 71 0.0 0.0 0.00 0.00 0.00 21 1013.3
20260505163303 72 0.0 0.0 0.00 0.00 0.00 18 1013.3
20260505161052 73 0.0 0.0 0.00 0.00 0.00 22 1013.2